* Astronomy

Members Login
Username 
 
Password 
    Remember Me  
Post Info TOPIC: Asteroid 2012 KA42


L

Posts: 131433
Date:
Asteroid 2012 KA42
Permalink  
 


Orbital elements:
2012 KA42                                                Earth MOID = 0.0143 AU
Epoch 2012 Mar. 14.0 TT = JDT 2456000.5                 MPC
M 337.85822              (2000.0)            P               Q
n   0.66528351     Peri.  314.86591     -0.93016711     +0.35410638
a   1.2995656      Node   246.09571     -0.29981279     -0.88504022
e   0.2493826      Incl.    6.08697     -0.21189961     -0.30217956
P   1.48           H   27.3           G   0.15           U   8

MPEC 2012 - K64



__________________
Page 1 of 1  sorted by
 
Quick Reply

Please log in to post quick replies.



Create your own FREE Forum
Report Abuse
Powered by ActiveBoard